Location: Clanezzo
(45.7500°N, 9.6000°E)
Time: 04:31:05
(UTC+00:00)

Cosmos 1461 - Pass Details

Date: 12 May 2021
Orbit: 510 x 653 km, 65.0° (Epoch: 18 June)

Event Time Altitude Azimuth Distance (km) Brightness Sun altitude
Exits shadow 21:35:27 28° 84° (E) 1,210 4.3 -21.8°
Drops below altitude 10° 21:38:19 10° 52° (NE) 2,043 5.8 -22.0°
Sets 21:40:45 0° 44° (NE) 2,941 6.8 -22.2°
